User: anonymous   Login
Location: Aragüita
(10.0436°N, 67.8028°W)
Time: 17:51:51
(UTC+00:00)
Language:

Cosmos 468 - Orbit

View from above orbital plane
View from above orbital plane
View from above satellite
View from above satellite

Ground track
Ground track

The orbit data is extracted from the following two-line orbital elements,

1 05705U 71114A   24165.95898433  .00000277  00000-0  10400-3 0  9992
2 05705  74.0164 150.3879 0014828   9.7455 350.3983 14.36212113745929
Epoch (UTC): 13 June 2024 23:00:56
Eccentricity: 0.0014828
inclination: 74.0164°
perigee height: 760 km
apogee height: 781 km
right ascension of ascending node: 150.3879°
argument of perigee: 9.7455°
revolutions per day: 14.36212113
mean anomaly at epoch: 350.3983°
orbit number at epoch: 74592

The dashed part of the orbit path shows where the satellite is in the earth's shadow,  

DLR